(74739) = 1999 RG184 = 2002 GG14

Discovered at Socorro on 1999-09-09 by LINEAR.

Orbit

Orbit type: Main Belt

Note: WebGL enabled browser required.

epoch2024-03-31.0
epoch JD2460400.5
perihelion date2021-04-02.73315
perihelion JD2459307.23315
argument of perihelion (°)219.08530
ascending node (°)91.42778
inclination (°)3.32484
eccentricity0.1980285
perihelion distance (AU)1.8979830
Tisserand w.r.t. Jupiter3.5
ΔV w.r.t. Earth (km/sec)8.6
semimajor axis (AU)2.3666466
mean anomaly (°)295.95787
mean daily motion (°/day)0.27070960
aphelion distance (AU)2.835
period (years)3.64
P-vector [x]0.64856076
P-vector [y]-0.68300204
P-vector [z]-0.33597196
Q-vector [x]0.75895151
Q-vector [y]0.61389333
Q-vector [z]0.21708888
absolute magnitude16.14
phase slope0.15
uncertainty0
referenceMPEC 2024-F50
observations used1125
oppositions20
arc length (days)12032
first opposition used1991
last opposition used2024
residual rms (arc-secs)0.64
perturbers coarse indicatorM-v
perturbers precise indicator003Ek
first observation date used1991-04-10.0
last observation date used2024-03-19.0
computer nameMPCLINUX
JD of orbit computation2456966.774285
perihelion JD uncertainty (days)5.9753E-05
argument of perihelion uncertainty (°)9.8977E-05
ascending node uncertainty (°)9.7946E-05
inclination uncertainty (°)4.1725E-06
eccentricity uncertainty 3.3925E-08
perihelion distance uncertainty (AU)8.0579E-08
Minimum Orbit Intersection Distances (in AU)
for orbit epoch: 2460400.5, reference: E2024-FB1
Mercury1.46435
Venus1.16985
Earth0.88468
Mars0.49763
Jupiter2.41997
Saturn6.27442
Uranus15.665
Neptune27.3081

Observations

1164 total observations over interval: 1991 04 10.33053 – 2024 03 19.637212
These data are available for download (format description).

Date (UT) J2000 RA J2000 Dec Magn Location Ref
1991 04 10.33053 13 37 31.86 -04 28 32.9 20.0 V 691 – Steward Observatory, Kitt Peak-Spacewatch MPS 77854
1991 04 10.35082 13 37 30.67 -04 28 25.6 20.6 V 691 – Steward Observatory, Kitt Peak-Spacewatch MPS 77854
1991 04 10.37616 13 37 29.15 -04 28 17.0 20.4 V 691 – Steward Observatory, Kitt Peak-Spacewatch MPS 77854
1999 09 05.32314 23 53 12.61 -07 53 27.1 18.4 R 699 – Lowell Observatory-LONEOS MPS 15187
1999 09 05.34867 23 53 11.29 -07 53 36.4   699 – Lowell Observatory-LONEOS MPS 15187
1999 09 05.37426 23 53 10.26 -07 53 47.4   699 – Lowell Observatory-LONEOS MPS 15187
1999 09 07.39603 23 51 33.01 -08 06 34.7 18.2   704 – Lincoln Laboratory ETS, New Mexico MPS 15187
1999 09 07.40742 23 51 32.42 -08 06 38.4 18.5   704 – Lincoln Laboratory ETS, New Mexico MPS 15187
1999 09 07.41885 23 51 31.83 -08 06 42.0 19.0   704 – Lincoln Laboratory ETS, New Mexico MPS 15187
1999 09 07.43020 23 51 31.25 -08 06 46.9 19.1   704 – Lincoln Laboratory ETS, New Mexico MPS 15187
1999 09 07.44156 23 51 30.64 -08 06 51.4 18.9   704 – Lincoln Laboratory ETS, New Mexico MPS 15187
1999 09 09.41658 23 49 52.76 -08 19 14.0 18.6   704 – Lincoln Laboratory ETS, New Mexico MPS 6403
1999 09 09.43021 23 49 52.04 -08 19 18.6 19.0   704 – Lincoln Laboratory ETS, New Mexico MPS 6403
1999 09 09.44381 23 49 51.35 -08 19 24.1 18.6   704 – Lincoln Laboratory ETS, New Mexico MPS 6403
1999 09 09.45733 23 49 50.63 -08 19 28.6 18.5   704 – Lincoln Laboratory ETS, New Mexico MPS 6403
1999 09 09.47082 23 49 49.98 -08 19 32.8 18.6   704 – Lincoln Laboratory ETS, New Mexico MPS 6403
1999 09 13.28384 23 46 34.81 -08 42 46.0 18.1   704 – Lincoln Laboratory ETS, New Mexico MPS 6403
1999 09 13.29497 23 46 34.18 -08 42 49.1 18.9   704 – Lincoln Laboratory ETS, New Mexico MPS 6403
1999 09 13.30632 23 46 33.54 -08 42 53.0 19.8   704 – Lincoln Laboratory ETS, New Mexico MPS 6403
1999 09 13.31780 23 46 32.97 -08 42 58.0 18.9   704 – Lincoln Laboratory ETS, New Mexico MPS 6403
1999 09 30.27470 23 32 29.75 -10 02 08.4 18.6   704 – Lincoln Laboratory ETS, New Mexico MPS 15187
1999 09 30.28734 23 32 29.09 -10 02 11.8 18.5   704 – Lincoln Laboratory ETS, New Mexico MPS 15187
1999 09 30.30002 23 32 28.55 -10 02 13.4 19.1   704 – Lincoln Laboratory ETS, New Mexico MPS 15187
1999 09 30.31284 23 32 27.93 -10 02 15.8 19.5   704 – Lincoln Laboratory ETS, New Mexico MPS 15187
1999 09 30.32546 23 32 27.38 -10 02 17.8 18.8   704 – Lincoln Laboratory ETS, New Mexico MPS 15187
1999 10 05.21463 23 29 11.40 -10 14 31.6 18.4 R 699 – Lowell Observatory-LONEOS MPS 15187
1999 10 05.24516 23 29 10.09 -10 14 36.7   699 – Lowell Observatory-LONEOS MPS 15187
1999 10 05.27573 23 29 08.92 -10 14 39.0   699 – Lowell Observatory-LONEOS MPS 15187
1999 10 07.25473 23 27 59.33 -10 18 00.3 18.9   704 – Lincoln Laboratory ETS, New Mexico MPS 15187
1999 10 07.26631 23 27 58.95 -10 18 01.3 19.3   704 – Lincoln Laboratory ETS, New Mexico MPS 15187
1999 10 07.27805 23 27 58.53 -10 18 02.6 19.2   704 – Lincoln Laboratory ETS, New Mexico MPS 15187
1999 10 07.28982 23 27 58.11 -10 18 03.4 19.2   704 – Lincoln Laboratory ETS, New Mexico MPS 15187
1999 10 07.30139 23 27 57.63 -10 18 04.1 19.1   704 – Lincoln Laboratory ETS, New Mexico MPS 15187
1999 10 16.17934 23 24 07.32 -10 21 29.2 19.1   704 – Lincoln Laboratory ETS, New Mexico MPS 15187
1999 10 16.19703 23 24 06.94 -10 21 29.0 19.2   704 – Lincoln Laboratory ETS, New Mexico MPS 15187
1999 10 16.21291 23 24 06.58 -10 21 27.7 18.4   704 – Lincoln Laboratory ETS, New Mexico MPS 15187
1999 10 16.23004 23 24 06.18 -10 21 26.9 19.0   704 – Lincoln Laboratory ETS, New Mexico MPS 15187
1999 10 16.24704 23 24 05.87 -10 21 26.7 18.9   704 – Lincoln Laboratory ETS, New Mexico MPS 15187
2001 01 30.13579 07 47 50.87 +23 33 58.4 20.6 V 691 – Steward Observatory, Kitt Peak-Spacewatch MPS 56916
2001 01 30.15900 07 47 49.58 +23 34 02.9 21.0 V 691 – Steward Observatory, Kitt Peak-Spacewatch MPS 56916
2001 01 30.18363 07 47 48.05 +23 34 07.8 21.9 V 691 – Steward Observatory, Kitt Peak-Spacewatch MPS 56916
2002 04 08.48385 14 26 58.57 -09 16 58.2 19.1   644 – Palomar Mountain/NEAT MPS 55901
2002 04 08.49428 14 26 58.08 -09 16 55.5 19.0   644 – Palomar Mountain/NEAT MPS 55901
2002 04 08.50464 14 26 57.57 -09 16 52.6 19.3   644 – Palomar Mountain/NEAT MPS 55901
2002 04 12.31388 14 23 50.93 -09 00 06.0 18.5   704 – Lincoln Laboratory ETS, New Mexico MPS 55901
2002 04 12.32769 14 23 50.19 -09 00 02.2 19.2   704 – Lincoln Laboratory ETS, New Mexico MPS 55901
2002 04 12.34154 14 23 49.46 -08 59 58.0 19.2   704 – Lincoln Laboratory ETS, New Mexico MPS 55901
2002 04 12.36899 14 23 48.03 -08 59 51.5 19.3   704 – Lincoln Laboratory ETS, New Mexico MPS 55901
2002 04 14.34237 14 22 04.53 -08 50 51.8 19.1   704 – Lincoln Laboratory ETS, New Mexico MPS 55901
2002 04 14.35625 14 22 03.83 -08 50 47.4 19.1   704 – Lincoln Laboratory ETS, New Mexico MPS 55901
2002 04 14.37017 14 22 02.96 -08 50 44.3 19.1   704 – Lincoln Laboratory ETS, New Mexico MPS 55901
2002 04 14.38390 14 22 02.25 -08 50 38.5 19.4   704 – Lincoln Laboratory ETS, New Mexico MPS 55901
2002 04 14.39759 14 22 01.58 -08 50 36.2 19.7   704 – Lincoln Laboratory ETS, New Mexico MPS 55901
2002 04 17.33651 14 19 20.13 -08 37 00.8 18.6   704 – Lincoln Laboratory ETS, New Mexico MPS 55901
2002 04 17.35038 14 19 19.38 -08 36 55.9 18.9   704 – Lincoln Laboratory ETS, New Mexico MPS 55901
2002 04 17.36423 14 19 18.54 -08 36 53.0 18.9   704 – Lincoln Laboratory ETS, New Mexico MPS 55901
2002 04 17.37803 14 19 17.67 -08 36 48.1 19.0   704 – Lincoln Laboratory ETS, New Mexico MPS 55901
2002 04 17.39184 14 19 16.90 -08 36 44.3 18.9   704 – Lincoln Laboratory ETS, New Mexico MPS 55901
2002 05 03.26230 14 03 36.08 -07 25 32.3 18.6 R 699 – Lowell Observatory-LONEOS MPS 55112
2002 05 03.27671 14 03 35.14 -07 25 28.9   699 – Lowell Observatory-LONEOS MPS 55112
2002 05 03.29114 14 03 34.38 -07 25 24.5   699 – Lowell Observatory-LONEOS MPS 55112
2002 05 03.30560 14 03 33.46 -07 25 21.3   699 – Lowell Observatory-LONEOS MPS 55112
2002 05 08.27213 13 58 46.67 -07 06 32.9 19.0   704 – Lincoln Laboratory ETS, New Mexico MPS 55112
2002 05 08.28477 13 58 45.90 -07 06 29.5 19.5   704 – Lincoln Laboratory ETS, New Mexico MPS 55112
2002 05 08.29726 13 58 45.20 -07 06 26.8 19.0   704 – Lincoln Laboratory ETS, New Mexico MPS 55112
2002 05 08.30965 13 58 44.51 -07 06 25.1 19.3   704 – Lincoln Laboratory ETS, New Mexico MPS 55112
2002 05 08.32207 13 58 43.73 -07 06 21.8 19.5   704 – Lincoln Laboratory ETS, New Mexico MPS 55112
2002 05 10.21922 13 56 59.25 -06 59 57.6 19.7 V 333 – Desert Eagle Observatory MPS 55112
2002 05 10.22033 13 56 59.20 -06 59 57.0 18.7   704 – Lincoln Laboratory ETS, New Mexico MPS 55112
2002 05 10.22669 13 56 58.80 -06 59 54.9 19.9 V 333 – Desert Eagle Observatory MPS 55112
2002 05 10.23507 13 56 58.34 -06 59 53.5 19.3   704 – Lincoln Laboratory ETS, New Mexico MPS 55112
2002 05 10.24406 13 56 57.84 -06 59 51.6 19.9 V 333 – Desert Eagle Observatory MPS 55112
2002 05 10.25123 13 56 57.44 -06 59 50.4 19.3 V 333 – Desert Eagle Observatory MPS 55112
2002 05 10.26457 13 56 56.66 -06 59 47.4 19.2   704 – Lincoln Laboratory ETS, New Mexico MPS 55113
2002 05 10.26828 13 56 56.45 -06 59 47.3 19.8 V 333 – Desert Eagle Observatory MPS 55113
2002 05 10.27635 13 56 55.96 -06 59 45.6 19.5 V 333 – Desert Eagle Observatory MPS 55113
2002 05 10.27959 13 56 55.76 -06 59 44.6 19.0   704 – Lincoln Laboratory ETS, New Mexico MPS 55113
2002 05 18.22325 13 50 20.10 -06 38 26.7 18.9   704 – Lincoln Laboratory ETS, New Mexico MPS 55113
2002 05 18.23822 13 50 19.42 -06 38 25.4 19.2   704 – Lincoln Laboratory ETS, New Mexico MPS 55113
2002 05 18.25320 13 50 18.68 -06 38 22.8 19.4   704 – Lincoln Laboratory ETS, New Mexico MPS 55113
2002 05 18.28323 13 50 17.27 -06 38 18.5 19.4   704 – Lincoln Laboratory ETS, New Mexico MPS 55113
2003 10 16.44655 04 02 53.01 +16 52 13.3 19.7 V 291 – LPL/Spacewatch II MPS 87267
2003 10 16.45083 04 02 52.87 +16 52 13.1 19.8 V 291 – LPL/Spacewatch II MPS 87267
2003 10 16.45526 04 02 52.71 +16 52 12.4 19.9 V 291 – LPL/Spacewatch II MPS 87267
2003 10 18.44626 04 01 44.02 +16 48 59.1 19.2 R 699 – Lowell Observatory-LONEOS MPS 87637
